TimeMST,TemperatureF,Dew PointF,Humidity,Sea Level PressureIn,VisibilityMPH,Wind Direction,Wind SpeedMPH,Gust SpeedMPH,PrecipitationIn,Events,Conditions,WindDirDegrees,DateUTC
12:57 AM,88.0,52.0,29,29.64,10.0,Calm,Calm,-,N/A,,Clear,0,2013-09-17 07:57:00
1:57 AM,90.0,45.0,21,29.62,10.0,North,4.6,-,N/A,,Clear,350,2013-09-17 08:57:00
2:57 AM,86.0,48.0,27,29.62,10.0,WSW,4.6,-,N/A,,Clear,240,2013-09-17 09:57:00
3:57 AM,87.1,48.0,26,29.62,10.0,South,4.6,-,N/A,,Clear,170,2013-09-17 10:57:00
4:57 AM,82.9,51.1,33,29.62,10.0,SE,3.5,-,N/A,,Clear,130,2013-09-17 11:57:00
5:57 AM,82.0,51.1,34,29.63,10.0,WSW,4.6,-,N/A,,Clear,250,2013-09-17 12:57:00
6:57 AM,82.0,53.1,37,29.65,10.0,SW,4.6,-,N/A,,Clear,220,2013-09-17 13:57:00
7:57 AM,87.1,52.0,30,29.67,10.0,Calm,Calm,-,N/A,,Clear,0,2013-09-17 14:57:00
8:57 AM,91.9,51.1,25,29.66,10.0,NNE,3.5,-,N/A,,Clear,30,2013-09-17 15:57:00
9:57 AM,96.1,48.0,19,29.67,10.0,Calm,Calm,-,N/A,,Clear,0,2013-09-17 16:57:00
10:57 AM,100.0,46.0,16,29.66,10.0,WNW,4.6,-,N/A,,Clear,290,2013-09-17 17:57:00
11:57 AM,105.1,39.0,10,29.64,10.0,West,4.6,-,N/A,,Clear,280,2013-09-17 18:57:00
12:57 PM,107.1,34.0,8,29.61,10.0,Variable,3.5,-,N/A,,Partly Cloudy,0,2013-09-17 19:57:00
1:57 PM,107.1,33.1,8,29.59,10.0,WSW,8.1,-,N/A,,Partly Cloudy,240,2013-09-17 20:57:00
2:57 PM,108.0,33.1,8,29.57,10.0,SW,12.7,-,N/A,,Partly Cloudy,230,2013-09-17 21:57:00
3:57 PM,107.1,34.0,8,29.55,10.0,SSE,5.8,-,N/A,,Partly Cloudy,150,2013-09-17 22:57:00
4:57 PM,106.0,34.0,8,29.54,10.0,Variable,5.8,-,N/A,,Partly Cloudy,0,2013-09-17 23:57:00
5:57 PM,105.1,39.0,10,29.52,10.0,SSW,13.8,-,N/A,,Clear,200,2013-09-18 00:57:00
6:57 PM,99.0,43.0,15,29.53,10.0,South,6.9,-,N/A,,Clear,190,2013-09-18 01:57:00
7:57 PM,93.9,46.0,19,29.55,10.0,SSW,9.2,-,N/A,,Clear,200,2013-09-18 02:57:00
8:57 PM,93.9,46.0,19,29.58,10.0,West,9.2,-,N/A,,Clear,270,2013-09-18 03:57:00
9:57 PM,91.0,43.0,19,29.59,10.0,West,4.6,-,N/A,,Clear,260,2013-09-18 04:57:00
10:57 PM,90.0,35.1,14,29.60,10.0,SSW,3.5,-,N/A,,Clear,210,2013-09-18 05:57:00
11:57 PM,84.9,43.0,23,29.60,10.0,South,3.5,-,N/A,,Clear,170,2013-09-18 06:57:00